SCP
0 0 0 0 0 0 0 0 0 0 0 -0 -0 -0 0 0 0 0 0 0 0 0 0 0 0 0 0 0 0 0 0 0 0 0 0 0 0 0 0 0 0 0 0
0 0 0 0 0 0 0 0 0 0 0 0 0 0 0 0 0 0 0 0 0 0 0 0 0 0 0 0 0 0 0 0 0 0 0 0 0 0 0 0 0 0 0
0 0 0 0 0 0 0 0 0 0 0 0 0 0 0 0 0 0 0 0 0 0 0 0 0 0 0 0 0 0 0 0 0 0 0 0 0 0 0 0 0 0 0
0 0 0 0 0 0 0 0 0 0 0 0 0 0 0 0 0 0 0 0 0 0 0 0 0 0 0 0 0 0 0 0 0 0 0 0 0 0 0 0 0 0 0
0 0 0 0 0 0 0 0 0 0 0 0 0 0 0 0 0 0 0 0 0 0 0 0 0 0 0 0 0 0 0 0 0 0 0 0 0 0 0 0 0 0 0
0 0 0 0 0 0 0 0 0 0 0 0 0 0 0 0 0 0 0 0 0 0 0 0 0 0 0 0 0 0 0 0 0 0 0 0 0 0 0 0 0 0 0
0 0 0 0 0 0 0 0 0 0 0 0 0 0 0 0 0 0 0 0 0 0 0 0 0 0 0 0 0 0 0 0 0 0 0 0 0 0 0 0 0 0 0
0 0 0 0 0 0 0 0 0 0 0 0 0 0 0 0 0 0 0 0 0 0 0 0 0 0 0 0 0 0 0 0 0 0 0 0 0 0 0 0 0 0 0
0 0 0 0 0 0 0 0 0 0 0 0 0 0 0 0 0 0 0 0 0 0 0 0 0 0 0 0 0 0 0 0 0 0 0 0 0 0 0 0 0 0 0
0 0 0 0 0 0 0 0 0 0 0 0 0 0 0 0 0 0 0 0 0 0 0 0 0 0 0 0 0 0 0 0 0 0 0 0 0 0 0 0 0 0 0
0 0 0 0 0 0 0 0 0 0 0 0 0 0 0 0 0 0 0 0 0 0 0 0 0 0 0 0 0 0 0 0 0 0 0 0 0 0 0 0 0 0 0
0 0 0 0 0 0 0 0 0 0 0 0 0 0 0 0 0 0 0 0 0 0 0 0 0 0 0 0 0 0 0 0 0 0 0 0 0 0 0 0 0 0 0
0 0 0 0 0 0 0 0 0 0 0 0 0 0 0 0 0 0 0 0 0 0 0 0 0 0 0 0 0 0 0 0 0 0 0 0 0 0 0 0 0 0 0
0 0 0 0 0 0 0 0 0 0 0 0 0 0 0 0 0 0 0 0 0 0 0 0 0 0 0 0 0 0 0 0 0 0 0 0 0 0 0 0 0 0 0
0 0 0 0 0 0 0 0 0 0 0 0 0 0 0 0 0 0 0 0 0 0 0 0 0 0 0 0 0 0 0 0 0 0 0 0 0 0 0 0 0 0 0
0 0 0 0 0 0 0 0 0 0 0 0 0 0 0 0 0 0 0 0 0 0 0 0 0 0 0 0 0 0 0 0 0 0 0 0 0 0 0 0 0 0 0
0 0 0 0 0 0 0 0 0 0 0 0 0 0 0 0 0 0 0 0 0 0 0 0 0 0 0 0 0 0 0 0 0 0 0 0 0 0 0 0 0 0 0
0 0 0 0 0 0 0 0 0 0 0 0 0 0 0 0 0 0 0 0 0 0 0 0 0 0 0 0 0 0 0 0 0 0 0 0 0 0 0 0 0 0 0
0 0 0 0 0 0 0 0 0 0 0 0 0 0 0 0 0 0 0 0 0 0 0 0 0 0 0 0 0 0 0 0 0 0 0 0 0 0 0 0 0 0 0
0 0 0 0 0 0 0 0 0 0 0 0 0 0 0 0 0 0 0 0 0 0 0 0 0 0 0 0 0 0 0 0 0 0 0 0 0 0 0 0 0 0 0
0 0 0 0 0 0 0 0 0 0 0 0 0 0 0 0 0 0 0 0 0 0 0 0 0 0 0 0 0 0 0 0 0 0 0 0 0 0 0 0 0 0 0
0 0 0 0 0 0 0 0 0 0 0 0 0 0 0 0 0 0 0 0 0 0 0 0 0 0 0 0 0 0 0 0 0 0 0 0 0 0 0 0 0 0 0
0 0 0 0 0 0 0 0 0 0 0 0 0 0 0 0 0 0 0 0 0 0 0 0 0 0 0 0 0 0 0 0 0 0 0 0 0 0 0 0 0 0 0
0 0 0 0 0 0 0 0 0 0 0 0 0 0 0 0 0 0 0 0 0 0 0 0 0 0 0 0 0 0 0 0 0 0 0 0 0 0 0 0 0 0 0
0 0 0 0 0 0 0 0 0 0 0 0 0 0 0 0 0 0 0 0 0 0 0 0 0 0 0 0 0 0 0 0 0 0 0 0 0 0 0 0 0 0 0
0 0 0 0 0 0 0 0 0 0 0 0 0 0 0 0 0 0 0 0 0 0 0 0 0 0 0 0 0 0 0 0 0 0 0 0 0 0 0 0 0 0 0
Wind_Speed
4 4 3 3 4 3 3 4 4 5 5 5 6 6 6 6 6 6 5 11 11 11 11 11 10 9 8 8 8 8 8 8 8 8 9 9 8 8 8 7 6 6 6
4 4 4 4 4 4 4 4 5 5 6 5 7 7 7 7 7 7 5 8 11 11 11 12 11 10 9 9 8 8 8 8 8 8 8 8 8 8 7 6 6 5 4
5 4 4 4 5 5 5 4 5 4 5 6 7 7 6 8 8 8 7 5 6 10 11 11 12 11 11 10 9 9 9 8 8 8 8 8 8 7 7 6 5 4 3
5 5 4 5 5 5 4 5 4 4 5 4 4 5 5 6 9 8 7 6 5 5 8 11 11 11 11 11 10 10 9 9 9 8 8 8 7 7 7 6 5 4 3
5 5 5 5 5 5 5 6 5 4 4 4 4 4 4 5 7 9 7 7 7 6 5 9 11 11 11 11 11 11 10 10 10 9 9 8 7 7 7 6 5 4 4
5 5 4 5 5 5 5 5 6 4 3 4 4 4 4 5 6 7 9 7 6 6 6 6 6 8 11 11 11 11 12 11 11 10 10 9 8 7 7 6 5 4 4
4 4 4 5 5 6 7 7 5 5 4 2 2 1 0 1 4 5 6 6 7 7 6 6 5 4 5 10 11 11 12 12 12 11 11 10 9 8 7 6 5 4 4
5 5 5 5 5 5 6 7 5 4 4 4 3 3 1 1 1 2 4 5 7 6 7 8 6 6 5 4 7 11 11 11 12 12 11 10 9 8 7 6 5 4 3
5 5 5 5 6 6 6 7 7 7 5 4 3 5 5 5 2 1 2 3 5 5 6 6 7 7 7 5 5 9 11 10 11 12 11 11 10 9 8 7 6 5 4
5 5 5 5 6 5 6 7 7 6 6 5 3 2 2 4 4 2 0 1 3 4 5 5 6 6 6 5 6 9 12 12 11 12 12 11 10 10 9 7 6 5 4
4 4 4 4 5 5 6 6 6 7 6 6 4 3 2 1 2 4 3 2 1 1 2 3 4 5 6 6 6 9 13 12 11 12 12 12 11 10 9 8 7 6 5
3 4 3 3 4 4 5 6 6 7 6 6 5 4 4 4 4 4 3 3 3 2 1 1 2 4 5 6 9 12 13 12 12 11 11 11 11 11 10 9 8 7 6
3 4 3 2 2 3 4 4 5 6 7 7 7 6 5 4 4 4 4 3 2 2 1 1 1 2 4 5 6 12 12 12 11 11 11 10 10 9 9 9 8 7 7
4 4 3 2 2 2 2 2 3 5 5 7 8 7 5 5 4 4 4 5 3 2 2 3 1 1 2 4 5 11 7 11 10 10 10 10 9 8 7 7 7 6 5
4 5 5 4 4 2 1 1 2 3 4 5 6 7 6 5 5 5 4 5 6 5 4 4 2 2 2 3 6 6 5 10 10 9 9 9 9 8 7 6 6 4 3
6 6 6 5 5 4 3 1 1 1 2 3 4 6 6 4 5 5 5 4 4 4 4 3 3 3 3 4 7 6 5 9 9 9 8 8 8 7 7 7 6 5 4
7 7 6 6 6 6 5 4 2 1 1 2 3 4 6 6 5 5 5 4 4 4 4 2 2 2 3 4 5 5 5 5 5 8 8 8 8 8 7 7 6 5 5
7 7 6 7 7 7 6 5 4 3 1 1 2 3 4 4 6 5 5 5 5 4 4 4 3 2 3 4 6 5 4 5 4 7 8 8 8 8 8 8 7 6 5
7 7 7 7 6 6 6 6 5 4 3 2 1 2 2 4 5 4 5 5 4 4 3 4 4 2 2 3 5 5 6 5 5 7 9 10 10 10 9 8 7 7 6
6 6 6 6 6 6 6 6 5 5 4 4 3 2 1 3 4 5 5 5 5 5 5 5 4 3 3 4 5 6 6 4 5 6 8 9 11 12 11 10 9 8 7
6 5 5 6 6 5 6 6 4 4 4 4 4 3 2 3 4 4 4 5 6 5 5 5 4 4 4 5 5 4 7 7 5 5 6 6 6 5 6 8 9 9 9
5 5 5 5 6 6 10 9 6 3 3 3 3 3 3 3 4 4 6 7 8 7 6 5 4 5 5 5 5 7 8 7 4 4 5 5 4 5 4 4 7 10 10
4 5 5 5 5 7 11 10 8 4 3 3 3 3 3 3 4 3 4 6 5 7 8 6 6 5 6 6 8 8 7 5 5 6 5 5 3 4 4 5 9 9 10
4 4 4 5 5 8 13 11 8 4 4 3 3 3 2 2 2 3 4 5 4 3 4 4 5 6 6 7 8 7 8 7 7 5 4 4 2 3 3 4 7 8 8
3 3 3 5 5 7 12 11 9 3 3 4 3 3 2 2 2 5 5 6 6 4 4 6 7 7 10 12 11 9 9 9 7 3 2 4 4 3 2 2 4 7 7
3 3 3 4 4 5 11 12 9 3 3 3 3 3 4 3 3 5 5 6 7 4 4 6 7 7 7 10 12 10 10 9 6 4 3 4 4 4 3 1 1 2 3
Wind_Direction
214 206 206 199 196 191 198 212 220 225 233 236 233 228 217 204 191 185 193 192 184 181 176 174 173 171 170 164 159 156 152 148 146 145 143 141 140 138 136 134 130 126 125
220 209 201 197 193 198 207 216 222 225 231 232 235 229 216 196 191 185 186 187 186 182 179 180 179 178 177 172 168 165 164 161 158 155 154 153 151 150 148 145 142 140 140
222 212 205 202 198 198 209 221 230 227 236 235 235 226 211 190 182 182 183 182 186 187 183 183 183 182 182 180 178 174 171 170 168 167 165 163 163 162 161 160 159 159 160
228 215 208 209 197 191 198 215 228 228 235 233 224 212 193 178 177 180 181 183 183 185 190 189 186 185 186 186 184 182 180 178 175 176 174 171 170 173 173 173 175 180 184
236 224 215 209 192 190 194 210 211 210 221 225 217 201 181 172 175 180 183 187 188 183 184 193 189 187 189 190 188 187 187 186 185 184 181 179 178 179 181 183 187 193 201
243 231 226 215 197 194 195 196 197 201 214 208 212 197 183 178 176 181 187 188 190 188 187 186 185 192 193 192 192 194 192 191 192 191 188 185 183 184 188 189 194 202 210
254 232 231 221 205 202 201 193 184 192 212 195 159 168 307 186 183 185 183 180 188 190 187 187 187 185 194 198 195 198 196 195 194 193 192 190 187 187 191 195 200 209 212
259 244 225 221 213 209 206 197 183 176 197 187 159 138 149 312 275 201 182 182 185 182 186 192 190 189 188 184 198 197 195 192 193 193 192 189 185 185 189 192 196 199 198
267 251 238 223 214 206 208 204 192 182 191 200 179 156 158 197 215 255 197 181 175 175 182 184 192 194 192 184 186 198 192 190 193 193 189 184 181 183 182 184 186 181 176
278 261 246 231 220 210 206 205 199 194 183 191 194 190 170 156 156 179 271 170 165 168 176 184 191 193 192 187 191 193 191 189 191 191 186 181 181 181 180 179 178 177 172
293 279 255 233 224 216 210 206 198 194 195 191 182 167 159 142 142 147 171 168 131 152 168 176 179 185 189 187 188 194 190 188 189 187 184 183 181 179 176 174 175 177 173
303 300 281 247 231 218 212 210 203 195 201 198 192 182 172 168 174 163 158 165 166 179 157 156 168 177 180 182 194 193 188 187 188 184 183 183 181 180 180 180 182 184 181
316 321 310 284 255 233 218 208 210 204 201 201 200 200 195 190 161 157 146 150 155 162 161 162 183 168 172 173 189 188 188 188 189 184 182 181 180 181 184 186 186 186 187
320 327 329 328 300 266 239 214 212 213 204 204 205 198 199 197 178 169 164 153 149 169 188 189 181 177 167 166 177 178 184 188 188 186 183 181 179 179 182 185 186 187 192
349 359 359 2 360 356 335 225 228 232 210 205 206 199 199 197 192 184 174 166 162 177 198 190 179 184 173 155 159 169 174 187 187 189 185 184 180 180 176 166 155 147 138
4 8 12 14 15 10 9 19 10 275 214 203 204 198 197 193 188 187 186 181 176 167 178 182 181 167 167 161 159 160 168 177 183 183 181 177 171 165 155 146 141 137 136
11 15 16 21 22 16 13 18 20 10 194 194 192 196 199 189 185 186 183 176 176 163 160 157 143 138 146 154 152 152 156 163 173 173 172 166 155 148 143 141 136 133 131
13 17 20 25 24 19 14 16 16 20 18 140 171 183 192 183 182 183 181 181 176 163 150 152 142 138 144 151 145 143 145 153 147 150 148 142 135 129 127 126 123 120 117
15 18 21 21 19 15 13 11 10 18 20 28 91 151 160 154 167 172 172 169 163 154 135 140 138 132 119 130 124 119 117 115 124 123 117 113 112 111 111 110 110 110 109
17 15 15 12 9 9 11 9 10 18 23 32 39 56 106 142 160 165 162 157 151 142 135 133 128 125 117 123 127 129 122 108 108 107 99 97 98 95 98 102 103 104 104
17 8 10 8 3 6 10 10 10 21 28 38 43 38 61 111 146 154 154 155 151 145 141 135 134 130 135 144 146 139 131 118 99 104 102 89 86 79 77 87 94 99 99
1 6 9 6 6 6 6 18 26 28 33 47 52 41 59 73 99 129 150 158 158 156 153 145 142 150 149 146 136 140 137 137 126 126 107 91 82 81 68 74 94 99 99
357 1 1 2 357 351 9 19 30 43 45 54 58 51 53 61 66 85 109 129 149 157 156 151 152 159 153 154 146 146 147 136 121 136 115 93 76 75 58 76 96 99 100
347 352 357 358 359 1 13 20 29 40 47 50 51 55 70 50 58 97 107 103 102 115 152 151 157 159 155 152 150 143 134 111 102 108 101 105 93 77 56 48 84 92 93
343 345 350 358 4 356 9 21 32 32 47 44 38 43 65 68 87 115 116 116 106 89 92 121 132 139 143 143 139 130 132 135 131 121 99 112 124 103 72 36 56 76 85
341 351 4 6 12 2 7 20 30 39 50 43 32 29 36 51 88 120 122 126 124 117 109 97 91 97 118 135 142 148 149 146 135 134 143 118 135 133 122 79 37 44 59